Location: Caltech
(34.1382°N, 118.1253°W)
Time: 04:13:32
(UTC-07:00)

Cosmos 1939 Rocket - Visible Passes

Search period start: 20 April 2014 00:00
Search period end: 30 April 2014 00:00
Orbit: 545 x 593 km, 97.7° (Epoch: 19 April)

Date Brightness Start Highest point End Pass type
(mag) Time Alt. Az. Time Alt. Az. Time Alt. Az.
20 Apr 4.6 20:43:04 17° ENE 20:43:09 17° ENE 20:45:48 10° NNE visible
20 Apr 5.0 22:19:10 25° WNW 22:19:10 25° WNW 22:21:37 10° NW visible
21 Apr 4.6 20:44:32 18° ENE 20:44:41 18° ENE 20:47:26 10° NNE visible
21 Apr 5.0 22:20:38 25° WNW 22:20:38 25° WNW 22:23:07 10° NW visible
22 Apr 4.5 20:46:01 18° ENE 20:46:13 18° ENE 20:49:04 10° NNE visible
22 Apr 5.0 22:22:06 25° WNW 22:22:06 25° WNW 22:24:38 10° NW visible
23 Apr 4.5 20:47:28 19° ENE 20:47:44 19° ENE 20:50:40 10° NNE visible
23 Apr 5.0 22:23:34 24° WNW 22:23:34 24° WNW 22:26:07 10° NW visible
24 Apr 4.4 20:48:56 20° ENE 20:49:15 20° ENE 20:52:16 10° NNE visible
24 Apr 5.0 22:25:02 24° WNW 22:25:02 24° WNW 22:27:37 10° NW visible
25 Apr 4.4 20:50:23 21° ENE 20:50:45 21° ENE 20:53:52 10° NNE visible
25 Apr 5.1 22:26:29 23° WNW 22:26:29 23° WNW 22:29:05 10° NW visible
26 Apr 4.3 20:51:50 21° E 20:52:15 22° ENE 20:55:26 10° NNE visible
26 Apr 5.1 22:27:55 22° W 22:27:55 22° W 22:30:33 10° NW visible
27 Apr 4.3 20:53:16 22° E 20:53:45 23° ENE 20:57:00 10° NNE visible
27 Apr 5.1 22:29:22 22° W 22:29:22 22° W 22:32:01 10° NW visible
28 Apr 4.2 20:54:42 23° E 20:55:15 24° ENE 20:58:34 10° NNE visible
28 Apr 5.1 22:30:48 21° W 22:30:48 21° W 22:33:27 10° NW visible
29 Apr 4.1 20:56:08 24° E 20:56:43 24° ENE 21:00:07 10° NNE visible
29 Apr 5.2 22:32:13 21° W 22:32:13 21° W 22:34:54 10° NW visible
